Garnett Industrial Airport (K68)
Garnett, KS
Field Elevation: 989
Lat: 38°16.64N  Long: 95°12.91W
CTAF/Unicom Freq: 122.8000
   
     For Weather-by-Phone, call 785-448-3254
Weather Advisories
12/22/2014 20:33 Z
Altimeter 29.47" Hg
Wind 240° @ 8 KT
Gusts --
Visibility 10 SM
Temperature 8° C (46° F)
Dewpoint 8° C (46° F)
Relative Humidity 100%
Density Altitude --
Condensation Altitude 1,000 feet
Wind Chill 5° C (41° F)
  Wind and Runways
Indicated Runway = 19
History
 
 
More Info
All DigiWx sites map
NOAA Forecast
 
Airport IQ 5010
(FLV) Sherman Airfield
(GRE) Greenville
 
about DigiWx
 
FAA Disclaimer: The data displayed is for advisory purposes only and is not to be used for flight planning or operations. For official data, please call 785-448-3254 to hear the current automated AWOS voice message.
  METAR K68 222033Z AUTO 24008KT 10SM 08/08 A2947